TimeMST,TemperatureF,Dew PointF,Humidity,Sea Level PressureIn,VisibilityMPH,Wind Direction,Wind SpeedMPH,Gust SpeedMPH,PrecipitationIn,Events,Conditions,WindDirDegrees,DateUTC
12:56 AM,21.9,12.9,68,30.12,10.0,Calm,Calm,-,N/A,,Clear,0,2013-01-10 07:56:00
1:56 AM,21.0,12.0,68,30.10,10.0,East,9.2,-,N/A,,Clear,100,2013-01-10 08:56:00
2:56 AM,25.0,14.0,63,30.05,10.0,SE,10.4,-,N/A,,Clear,130,2013-01-10 09:56:00
3:56 AM,25.0,15.1,66,30.01,10.0,SE,12.7,-,N/A,,Clear,130,2013-01-10 10:56:00
4:56 AM,25.0,16.0,69,29.99,10.0,ESE,10.4,-,N/A,,Clear,120,2013-01-10 11:56:00
5:56 AM,26.1,16.0,66,29.98,10.0,SE,13.8,-,N/A,,Clear,130,2013-01-10 12:56:00
6:56 AM,27.0,16.0,63,30.02,10.0,SE,12.7,-,N/A,,Clear,130,2013-01-10 13:56:00
7:56 AM,28.0,16.0,61,30.01,10.0,ESE,10.4,-,N/A,,Clear,120,2013-01-10 14:56:00
8:56 AM,30.9,17.1,57,29.99,10.0,East,10.4,-,N/A,,Clear,100,2013-01-10 15:56:00
9:56 AM,37.9,18.0,45,29.96,10.0,ENE,6.9,-,N/A,,Clear,70,2013-01-10 16:56:00
10:39 AM,51.8,15.8,24,29.91,10.0,SSE,18.4,-,N/A,,Clear,160,2013-01-10 17:39:00
10:56 AM,54.0,15.1,22,29.88,10.0,SSW,21.9,27.6,N/A,,Clear,200,2013-01-10 17:56:00
11:56 AM,55.0,16.0,22,29.85,10.0,South,20.7,27.6,N/A,,Clear,190,2013-01-10 18:56:00
12:56 PM,55.9,14.0,19,29.79,10.0,South,23.0,32.2,N/A,,Clear,180,2013-01-10 19:56:00
1:56 PM,55.0,14.0,20,29.77,10.0,South,24.2,32.2,N/A,,Clear,180,2013-01-10 20:56:00
2:56 PM,55.0,16.0,22,29.75,10.0,SW,26.5,34.5,N/A,,Scattered Clouds,220,2013-01-10 21:56:00
3:56 PM,52.0,16.0,24,29.76,10.0,SSW,32.2,41.4,N/A,,Clear,200,2013-01-10 22:56:00
4:56 PM,48.0,19.0,32,29.73,10.0,South,25.3,39.1,N/A,,Mostly Cloudy,180,2013-01-10 23:56:00
5:56 PM,43.0,24.1,47,29.72,10.0,South,31.1,39.1,N/A,,Clear,180,2013-01-11 00:56:00
6:56 PM,41.0,26.1,55,29.72,10.0,South,19.6,27.6,N/A,,Clear,170,2013-01-11 01:56:00
7:56 PM,41.0,24.1,51,29.71,10.0,South,17.3,23.0,N/A,,Clear,190,2013-01-11 02:56:00
8:56 PM,42.1,19.0,40,29.69,10.0,SSW,19.6,-,N/A,,Clear,200,2013-01-11 03:56:00
9:56 PM,39.2,19.4,45,29.69,10.0,South,17.3,25.3,N/A,,Clear,190,2013-01-11 04:56:00
10:56 PM,39.9,27.0,60,29.60,10.0,SSW,13.8,25.3,N/A,,Overcast,200,2013-01-11 05:56:00
11:56 PM,37.9,30.0,73,29.61,10.0,SW,21.9,27.6,0.00,Rain,Light Rain,220,2013-01-11 06:56:00